YU7IBS-1 Weather Reports


Display with metric or nautical units.
time (UTC)temp
F
wind
direction
speed
MPH
gust
MPH
rain 1hr
in
rain 24hr
in
rain mn
in
humidity
%
barometer
mb
20260507122747 71 0 0.0 0.0 0.00 0.00 0.00 65 998.2
20260507121247 71 0 0.0 0.0 0.00 0.00 0.00 64 998.1
20260507115746 71 0 0.0 0.0 0.00 0.00 0.00 64 998.6
20260507114244 71 0 0.0 0.0 0.00 0.00 0.00 66 998.3
20260507112745 70 0 0.0 0.0 0.00 0.00 0.00 68 998.4
20260507111245 69 0 0.0 0.0 0.00 0.00 0.00 69 998.3
20260507105744 68 0 0.0 0.0 0.00 0.00 0.00 73 998.7
20260507104245 67 0 0.0 0.0 0.00 0.00 0.00 72 998.3
20260507102744 68 0 0.0 0.0 0.00 0.00 0.00 68 998.7
20260507101245 67 0 0.0 0.0 0.00 0.00 0.00 71 998.3
20260507094244 67 0 0.0 0.0 0.00 0.00 0.00 78 998.6
20260507092751 66 0 0.0 0.0 0.00 0.00 0.00 78 998.5
20260507091244 67 0 0.0 0.0 0.00 0.00 0.00 76 998.5
20260507085747 66 0 0.0 0.0 0.00 0.00 0.00 79 998.5
20260507084244 66 0 0.0 0.0 0.00 0.00 0.00 78 998.5
20260507082747 65 0 0.0 0.0 0.00 0.00 0.00 85 998.5
20260507081244 64 0 0.0 0.0 0.00 0.00 0.00 92 998.5
20260507075744 62 0 0.0 0.0 0.00 0.00 0.00 94 998.5
20260507074244 62 0 0.0 0.0 0.00 0.00 0.00 94 998.5
20260507072743 61 0 0.0 0.0 0.00 0.00 0.00 98 998.6
20260507071244 61 0 0.0 0.0 0.00 0.00 0.00 99 998.5
20260507065744 62 0 0.0 0.0 0.00 0.00 0.00 97 998.5
20260507064244 61 0 0.0 0.0 0.00 0.00 0.00 98 998.5
20260507062745 60 0 0.0 0.0 0.00 0.00 0.00 98 998.5
20260507061244 60 0 0.0 0.0 0.00 0.00 0.00 96 998.5
20260507055744 60 0 0.0 0.0 0.00 0.00 0.00 95 998.5
20260507054243 60 0 0.0 0.0 0.00 0.00 0.00 96 998.5
20260507052744 60 0 0.0 0.0 0.00 0.00 0.00 96 997.9
20260507051244 59 0 0.0 0.0 0.00 0.00 0.00 97 997.5
20260507045744 60 0 0.0 0.0 0.00 0.00 0.00 97 997.7
20260507044245 61 0 0.0 0.0 0.00 0.00 0.00 95 997.3
20260507041249 62 0 0.0 0.0 0.00 0.00 0.00 91 997.3
20260507035743 63 0 0.0 0.0 0.00 0.00 0.00 89 997.3
20260507034244 64 0 0.0 0.0 0.00 0.00 0.00 77 996.4
20260507032744 64 0 0.0 0.0 0.00 0.00 0.00 79 996.7
20260507031244 64 0 0.0 0.0 0.00 0.00 0.00 77 996.3
20260507025744 64 0 0.0 0.0 0.00 0.00 0.00 81 996.7
20260507024244 64 0 0.0 0.0 0.00 0.00 0.00 79 996.3
20260507022744 64 0 0.0 0.0 0.00 0.00 0.00 83 996.7
20260507021244 64 0 0.0 0.0 0.00 0.00 0.00 81 996.3
20260507015744 64 0 0.0 0.0 0.00 0.00 0.00 86 996.6
20260507012744 63 0 0.0 0.0 0.00 0.00 0.00 90 995.8
20260507011244 63 0 0.0 0.0 0.00 0.00 0.00 88 995.3
20260507005744 63 0 0.0 0.0 0.00 0.00 0.00 92 995.7
20260507004244 63 0 0.0 0.0 0.00 0.00 0.00 89 995.3
20260507002744 63 0 0.0 0.0 0.00 0.00 0.00 92 995.7
20260507001244 63 0 0.0 0.0 0.00 0.00 0.00 88 995.3
20260506234243 63 0 0.0 0.0 0.00 0.00 0.00 88 995.3
20260506232745 63 0 0.0 0.0 0.00 0.00 0.00 92 995.7
20260506231244 63 0 0.0 0.0 0.00 0.00 0.00 88 995.3
20260506224243 64 0 0.0 0.0 0.00 0.00 0.00 86 995.3
20260506222743 64 0 0.0 0.0 0.00 0.00 0.00 89 995.7
20260506221243 64 0 0.0 0.0 0.00 0.00 0.00 83 995.3
20260506215744 65 0 0.0 0.0 0.00 0.00 0.00 84 995.7
20260506214244 66 0 0.0 0.0 0.00 0.00 0.00 76 995.1
20260506212743 67 0 0.0 0.0 0.00 0.00 0.00 72 994.8
20260506211244 68 0 0.0 0.0 0.00 0.00 0.00 62 994.3
20260506205744 68 0 0.0 0.0 0.00 0.00 0.00 58 994.7
20260506204243 69 0 0.0 0.0 0.00 0.00 0.00 50 993.5
20260506202743 68 0 0.0 0.0 0.00 0.00 0.00 52 993.7
20260506201243 69 0 0.0 0.0 0.00 0.00 0.00 53 993.5